Content
SEND FEEDBACK

Daily
Averages
Monthly
Summary
China

CHONGQING, CHINA


Home > Asia > China
Elevation: 1151 feet     Latitude: 29 31N     Longitude: 106 29E

WEATHER
 
SELECT A DAY
Number of Records: 130,324;   Date Range: 1/29/00 - 8/31/14
 
SHARE

PRINT THIS DATA

[ ← Previous Day ]
WEATHER ALMANAC - OCTOBER 5, 2013
[ Next Day → ]
[ °C ]   °F
Weather ElementAverageHighLow
Temperature68.9 °F74 °F (2:00 pm)66.2 °F (2:00 am)
Dewpoint63.2 °F66 °F (2:00 am)58 °F (11:00 pm)
Humidity81.9 %94 % (2:00 am)63 % (5:00 pm)
Barometer30.01 in30.09 in (11:00 pm)29.94 in (5:00 am)
Wind Speed2.8 mph4.5 mph (2:00 am)
Weather ElementAverage
Visibility2.2 mi
Wind DirectionESE (111.3 °)

Weather ElementTotal
Precipitation---
Cooling Degree Days5.1 (Base 65)
Growing Degree Days20.1 (Base 50)
Averaged from 30 records on October 5, 2013
WEATHER CONDITIONS BREAKOUT
WIND DIRECTION BREAKOUT
WEATHER BY HOUR - OCTOBER 5, 2013
[ °C ]   °F
Local TimeTemperatureDewpointHumidityBarometerVisibilityWind DirectionWind SpeedGust SpeedPrecipitationEventsConditions
1:00 AM68.0 °F64.4 °F88 %30.01 in0.7 miVariable2.2 mphRainLight Rain
2:00 AM68.0 °F66.0 °F91 %29.95 inWNW (290°)2.2 mph
2:00 AM66.2 °F64.4 °F94 %29.98 in0.6 miNorth (360°)4.5 mphPartly Cloudy
3:00 AM66.2 °F64.4 °F94 %29.98 in0.6 miNorth (10°)4.5 mphPartly Cloudy
4:00 AM68.0 °F64.4 °F88 %29.98 in0.7 miWest (270°)2.2 mphPartly Cloudy
5:00 AM68.0 °F66.0 °F93 %29.94 inENE (70°)2.2 mph
5:00 AM66.2 °F64.4 °F94 %29.98 in0.4 miVariable2.2 mphFog-RainLight Rain
6:00 AM66.2 °F64.4 °F94 %30.01 in0.4 miVariable2.2 mphFog-RainLight Rain
7:00 AM66.2 °F64.4 °F94 %30.01 in0.6 miWSW (240°)2.2 mphRainLight Rain
8:00 AM67.0 °F65.0 °F93 %29.99 in1.0 miWNW (290°)2.2 mphClear
8:00 AM66.2 °F64.4 °F94 %30.01 in0.6 miCalmFog-RainLight Rain
9:00 AM66.2 °F64.4 °F94 %30.04 in0.6 miVariable2.2 mphRainLight Rain
10:00 AM66.2 °F64.4 °F94 %30.06 in0.6 miVariable2.2 mphScattered Clouds
11:00 AM69.0 °F65.0 °F82 %30.02 in2.0 miSW (220°)2.2 mphMist
11:00 AM68.0 °F64.4 °F88 %30.06 in0.6 miVariable2.2 mphScattered Clouds
12:00 PM69.8 °F64.4 °F83 %30.04 in1.0 miVariable2.2 mphScattered Clouds
1:00 PM69.8 °F64.4 °F83 %30.04 in1.6 miSE (140°)4.5 mphScattered Clouds
2:00 PM74.0 °F64.0 °F64 %29.97 in3.0 miNE (40°)2.2 mphHaze
2:00 PM71.6 °F64.4 °F78 %30.01 in1.2 miVariable2.2 mphScattered Clouds
3:00 PM73.4 °F60.8 °F65 %30.01 in3.1 miVariable4.5 mphHaze
4:00 PM71.6 °F60.8 °F69 %30.01 in3.1 miSE (140°)4.5 mphHaze
5:00 PM74.0 °F64.0 °F63 %29.94 inSSE (160°)4.5 mphPartly Cloudy
5:00 PM73.4 °F60.8 °F65 %29.98 in5.6 miSE (130°)4.5 mphPartly Cloudy
6:00 PM71.6 °F60.8 °F69 %30.01 in5.6 miSSE (160°)4.5 mphPartly Cloudy
7:00 PM69.8 °F60.8 °F73 %30.01 in5.0 miSouth (180°)2.2 mphPartly Cloudy
8:00 PM69.8 °F60.8 °F73 %30.04 in5.0 miVariable2.2 mph
9:00 PM69.8 °F60.8 °F73 %30.06 in5.0 miEast (100°)2.2 mph
10:00 PM66.2 °F60.8 °F83 %30.06 in3.7 miSouth (180°)2.2 mph
11:00 PM68.0 °F58.0 °F63 %30.05 inSSW (200°)2.2 mph
11:00 PM68.0 °F60.8 °F78 %30.09 in3.7 miSSE (160°)4.5 mph
Hourly data recorded from ZUCK, located miles away from Chongqing, China







STORIES FROM OUR PARTNERS